| time (UTC) | temp F | wind direction | speed MPH | gust MPH | rain 1hr in | rain 24hr in | rain mn in | humidity % | barometer mb |
| 20260503210036 | 46 | 334 | 2.0 | 5.0 | 0.00 | 0.00 | 0.00 | 46 | 1007.0 |
| 20260503204536 | 46 | 301 | 1.0 | 9.0 | 0.00 | 0.00 | 0.00 | 46 | 1007.1 |
| 20260503203052 | 47 | 87 | 3.0 | 11.0 | 0.00 | 0.00 | 0.00 | 45 | 1007.0 |
| 20260503201537 | 47 | 340 | 2.0 | 12.0 | 0.00 | 0.00 | 0.00 | 44 | 1006.9 |
| 20260503200039 | 47 | 353 | 2.0 | 8.0 | 0.00 | 0.00 | 0.00 | 45 | 1006.7 |
| 20260503194540 | 47 | 306 | 4.0 | 11.0 | 0.00 | 0.00 | 0.00 | 41 | 1006.9 |
| 20260503193037 | 47 | 0 | 2.0 | 9.0 | 0.00 | 0.00 | 0.00 | 42 | 1006.9 |
| 20260503191538 | 47 | 150 | 4.0 | 13.0 | 0.00 | 0.00 | 0.00 | 41 | 1007.0 |
| 20260503190039 | 47 | 265 | 2.0 | 10.0 | 0.00 | 0.00 | 0.00 | 44 | 1007.0 |
| 20260503184539 | 47 | 313 | 2.0 | 11.0 | 0.00 | 0.00 | 0.00 | 43 | 1006.9 |
| 20260503183040 | 47 | 225 | 2.0 | 8.0 | 0.00 | 0.00 | 0.00 | 44 | 1007.0 |
| 20260503181539 | 47 | 324 | 2.0 | 9.0 | 0.00 | 0.00 | 0.00 | 44 | 1006.7 |
| 20260503180041 | 47 | 319 | 2.0 | 4.0 | 0.00 | 0.00 | 0.00 | 45 | 1006.6 |
| 20260503174537 | 47 | 315 | 3.0 | 12.0 | 0.00 | 0.00 | 0.00 | 42 | 1006.7 |
| 20260503174031 | 48 | 26 | 1.0 | 7.0 | 0.00 | 0.00 | 0.00 | 42 | 1006.6 |
| 20260503173522 | 49 | 247 | 1.0 | 7.0 | 0.00 | 0.00 | 0.00 | 44 | 1006.6 |
| 20260503173039 | 48 | 338 | 2.0 | 8.0 | 0.00 | 0.00 | 0.00 | 42 | 1006.5 |
| 20260503173020 | 49 | 338 | 1.0 | 7.0 | 0.00 | 0.00 | 0.00 | 42 | 1006.5 |
| 20260503171918 | 49 | 313 | 3.0 | 7.0 | 0.00 | 0.00 | 0.00 | 41 | 1006.7 |
| 20260503171545 | 48 | 313 | 3.0 | 8.0 | 0.00 | 0.00 | 0.00 | 41 | 1006.6 |
| 20260503170717 | 49 | 8 | 2.0 | 4.0 | 0.00 | 0.00 | 0.00 | 44 | 1006.6 |
| 20260503081537 | 37 | 0 | 0.0 | 0.0 | 0.00 | 0.22 | 0.00 | 92 | 1008.7 |
| 20260503071551 | 37 | 0 | 0.0 | 0.0 | 0.00 | 0.23 | 0.00 | 93 | 1009.0 |
| 20260503054549 | 36 | 0 | 0.0 | 0.0 | 0.00 | 0.35 | 0.00 | 93 | 1009.7 |
| 20260503053033 | 36 | 0 | 0.0 | 0.0 | 0.00 | 0.35 | 0.00 | 93 | 1009.8 |
| 20260503051537 | 36 | 0 | 0.0 | 0.0 | 0.00 | 0.35 | 0.00 | 92 | 1010.1 |
| 20260503050040 | 36 | 0 | 0.0 | 0.0 | 0.00 | 0.35 | 0.00 | 92 | 1010.1 |
| 20260503044536 | 36 | 0 | 0.0 | 0.0 | 0.00 | 0.35 | 0.00 | 90 | 1010.2 |
| 20260503043034 | 37 | 0 | 0.0 | 0.0 | 0.00 | 0.35 | 0.00 | 89 | 1010.4 |
| 20260503041539 | 37 | 0 | 0.0 | 0.0 | 0.00 | 0.35 | 0.00 | 89 | 1010.6 |
| 20260503040049 | 38 | 0 | 0.0 | 0.0 | 0.00 | 0.35 | 0.00 | 88 | 1010.7 |
| 20260503034535 | 38 | 0 | 0.0 | 0.0 | 0.00 | 0.35 | 0.35 | 88 | 1010.8 |
| 20260503033038 | 39 | 0 | 0.0 | 0.0 | 0.00 | 0.35 | 0.35 | 88 | 1010.8 |
| 20260503031536 | 39 | 0 | 0.0 | 0.0 | 0.00 | 0.35 | 0.35 | 88 | 1010.9 |
| 20260503030045 | 39 | 0 | 0.0 | 0.0 | 0.00 | 0.35 | 0.35 | 87 | 1011.0 |
| 20260503024533 | 40 | 0 | 0.0 | 0.0 | 0.00 | 0.35 | 0.35 | 86 | 1011.0 |
| 20260503023036 | 41 | 0 | 0.0 | 0.0 | 0.00 | 0.35 | 0.35 | 85 | 1011.2 |
| 20260503021535 | 42 | 0 | 0.0 | 0.0 | 0.00 | 0.35 | 0.35 | 85 | 1011.2 |
| 20260503020037 | 42 | 0 | 0.0 | 0.0 | 0.00 | 0.35 | 0.35 | 84 | 1011.3 |
| 20260503014534 | 43 | 0 | 0.0 | 0.0 | 0.00 | 0.35 | 0.35 | 82 | 1011.4 |
| 20260503013038 | 43 | 0 | 0.0 | 0.0 | 0.00 | 0.35 | 0.35 | 81 | 1011.4 |
| 20260503011535 | 44 | 343 | 1.0 | 3.0 | 0.00 | 0.35 | 0.35 | 81 | 1011.2 |
| 20260503010037 | 45 | 0 | 0.0 | 3.0 | 0.00 | 0.35 | 0.35 | 80 | 1011.0 |
| 20260503004537 | 45 | 0 | 0.0 | 2.0 | 0.00 | 0.35 | 0.35 | 79 | 1010.8 |
| 20260503003039 | 46 | 0 | 0.0 | 1.0 | 0.00 | 0.35 | 0.35 | 84 | 1010.6 |
| 20260503001546 | 46 | 353 | 0.0 | 2.0 | 0.00 | 0.35 | 0.35 | 82 | 1010.1 |
| 20260503000035 | 46 | 134 | 0.0 | 3.0 | 0.00 | 0.35 | 0.35 | 79 | 1009.7 |
| 20260502234541 | 46 | 0 | 0.0 | 2.0 | 0.00 | 0.35 | 0.35 | 88 | 1009.5 |
| 20260502233034 | 47 | 0 | 0.0 | 0.0 | 0.00 | 0.35 | 0.35 | 87 | 1009.5 |
| 20260502231536 | 47 | 0 | 0.0 | 0.0 | 0.00 | 0.35 | 0.35 | 87 | 1009.4 |
| 20260502230037 | 48 | 0 | 0.0 | 0.0 | 0.00 | 0.35 | 0.35 | 86 | 1009.5 |
| 20260502224537 | 48 | 0 | 0.0 | 0.0 | 0.00 | 0.35 | 0.35 | 86 | 1009.4 |
| 20260502223036 | 49 | 0 | 0.0 | 0.0 | 0.00 | 0.35 | 0.35 | 82 | 1009.3 |
| 20260502221540 | 49 | 0 | 0.0 | 0.0 | 0.00 | 0.35 | 0.35 | 81 | 1009.2 |
| 20260502220035 | 49 | 0 | 0.0 | 0.0 | 0.00 | 0.35 | 0.35 | 80 | 1009.2 |
| 20260502214534 | 49 | 0 | 0.0 | 0.0 | 0.00 | 0.35 | 0.35 | 80 | 1009.3 |
| 20260502213036 | 49 | 0 | 0.0 | 0.0 | 0.00 | 0.35 | 0.35 | 76 | 1009.2 |
| 20260502211536 | 49 | 0 | 0.0 | 2.0 | 0.00 | 0.35 | 0.35 | 75 | 1009.2 |